AZU55V SBCY-SBSP

Flight info

Callsign AZU55V
Flight time N/A
Altitude 35000
Route ATAV1A DIKUN DCT ROBID DCT NIGRA DCT PUMUS DCT MEVUT DCT UTLOT ORES1A
Aircraft A20N/M-SDE2E3FGHIRWXY/LB1

Departure

Time 2026-04-15 14:40
Airport Várzea Grande–Marechal Rondon International Airport (SBCY)

Arrival

Time N/A
Airport Congonhas–Deputado Freitas Nobre Airport (SBSP)
Time Latitude Longitude Altitude Speed Heading
2026-04-15 14:39 -15.66146 -56.11219 601 ft 1 kts 333°
2026-04-15 14:39 -15.66129 -56.11228 601 ft 18 kts 332°
2026-04-15 14:40 -15.65783 -56.11413 614 ft 92 kts 333°
2026-04-15 14:40 -15.65018 -56.11817 620 ft 149 kts 333°
2026-04-15 14:40 -15.64068 -56.12321 1177 ft 148 kts 332°
2026-04-15 14:40 -15.63165 -56.12812 1829 ft 152 kts 333°
2026-04-15 14:41 -15.62193 -56.13328 2356 ft 159 kts 333°
2026-04-15 14:41 -15.61157 -56.13876 2824 ft 176 kts 333°
2026-04-15 14:41 -15.60021 -56.14485 3343 ft 192 kts 333°
2026-04-15 14:41 -15.58867 -56.15315 3784 ft 216 kts 311°
2026-04-15 14:42 -15.58210 -56.16790 4193 ft 241 kts 278°
2026-04-15 14:42 -15.58395 -56.18585 4669 ft 266 kts 250°
2026-04-15 14:42 -15.59474 -56.20206 5233 ft 282 kts 221°
2026-04-15 14:42 -15.61205 -56.21160 6069 ft 286 kts 195°
2026-04-15 14:43 -15.63150 -56.21638 6903 ft 288 kts 195°
2026-04-15 14:43 -15.65090 -56.22202 7747 ft 291 kts 192°
2026-04-15 14:43 -15.67094 -56.22546 8584 ft 293 kts 183°
2026-04-15 14:43 -15.69136 -56.22465 9400 ft 296 kts 173°
2026-04-15 14:44 -15.71194 -56.22280 10184 ft 299 kts 175°
2026-04-15 14:44 -15.73332 -56.22121 10515 ft 319 kts 176°
2026-04-15 14:44 -15.75634 -56.21956 10729 ft 342 kts 176°
2026-04-15 14:44 -15.78045 -56.21776 11217 ft 351 kts 176°
2026-04-15 14:45 -15.80489 -56.21587 11937 ft 353 kts 176°
2026-04-15 14:45 -15.82916 -56.21397 12643 ft 357 kts 176°
2026-04-15 14:45 -15.85403 -56.21199 13349 ft 360 kts 176°
2026-04-15 14:45 -15.87895 -56.20886 14010 ft 364 kts 166°
2026-04-15 14:46 -15.90218 -56.19820 14607 ft 369 kts 146°
2026-04-15 14:46 -15.92104 -56.17960 15232 ft 372 kts 127°
2026-04-15 14:46 -15.93547 -56.15753 15829 ft 376 kts 123°
2026-04-15 14:46 -15.94965 -56.13464 16438 ft 378 kts 123°
2026-04-15 14:47 -15.96390 -56.11153 17021 ft 381 kts 123°
2026-04-15 14:47 -15.97832 -56.08835 17591 ft 383 kts 123°
2026-04-15 14:47 -15.99293 -56.06505 18164 ft 386 kts 124°
2026-04-15 14:47 -16.00772 -56.04160 18661 ft 389 kts 124°
2026-04-15 14:48 -16.02258 -56.01807 19136 ft 391 kts 124°
2026-04-15 14:48 -16.03759 -55.99432 19616 ft 394 kts 124°
2026-04-15 14:48 -16.05270 -55.97044 20087 ft 397 kts 123°
2026-04-15 14:48 -16.06793 -55.94635 20556 ft 400 kts 123°
2026-04-15 14:49 -16.08326 -55.92211 21030 ft 402 kts 123°
2026-04-15 14:49 -16.09869 -55.89768 21480 ft 405 kts 123°
2026-04-15 14:49 -16.11420 -55.87311 21909 ft 408 kts 123°
2026-04-15 14:49 -16.12982 -55.84835 22355 ft 411 kts 123°
2026-04-15 14:50 -16.14556 -55.82338 22789 ft 414 kts 123°
2026-04-15 14:50 -16.16138 -55.79829 23228 ft 416 kts 123°
2026-04-15 14:50 -16.17731 -55.77300 23631 ft 419 kts 123°
2026-04-15 14:50 -16.19328 -55.74763 23956 ft 422 kts 123°
2026-04-15 14:51 -16.20946 -55.72193 24277 ft 425 kts 123°
2026-04-15 14:51 -16.22571 -55.69613 24594 ft 429 kts 122°
2026-04-15 14:51 -16.24212 -55.67005 24899 ft 432 kts 122°
2026-04-15 14:51 -16.25862 -55.64381 25205 ft 435 kts 122°
2026-04-15 14:52 -16.27524 -55.61737 25512 ft 438 kts 122°
2026-04-15 14:52 -16.29198 -55.59073 25826 ft 441 kts 122°
2026-04-15 14:52 -16.30881 -55.56393 26135 ft 444 kts 122°
2026-04-15 14:52 -16.32574 -55.53695 26432 ft 446 kts 122°
2026-04-15 14:53 -16.34275 -55.50986 26738 ft 449 kts 122°
2026-04-15 14:53 -16.35990 -55.48252 27026 ft 452 kts 122°
2026-04-15 14:53 -16.37711 -55.45506 27322 ft 454 kts 122°
2026-04-15 14:53 -16.39442 -55.42744 27596 ft 457 kts 122°
2026-04-15 14:54 -16.41182 -55.39966 27870 ft 459 kts 122°
2026-04-15 14:54 -16.42930 -55.37174 28147 ft 462 kts 122°
2026-04-15 14:54 -16.44665 -55.34403 28396 ft 464 kts 122°
2026-04-15 14:54 -16.46437 -55.31570 28651 ft 467 kts 122°
2026-04-15 14:55 -16.48215 -55.28729 28888 ft 469 kts 122°
2026-04-15 14:55 -16.50002 -55.25872 29136 ft 472 kts 122°
2026-04-15 14:55 -16.51796 -55.23000 29377 ft 474 kts 122°
2026-04-15 14:55 -16.53603 -55.20109 29604 ft 477 kts 122°
2026-04-15 14:56 -16.55415 -55.17207 29834 ft 479 kts 122°
2026-04-15 14:56 -16.57239 -55.14286 30054 ft 482 kts 122°
2026-04-15 14:56 -16.59070 -55.11352 30257 ft 484 kts 122°
2026-04-15 14:56 -16.60905 -55.08409 30507 ft 485 kts 122°
2026-04-15 14:57 -16.62746 -55.05456 30731 ft 487 kts 122°
2026-04-15 14:57 -16.63970 -55.03492 30886 ft 488 kts 122°
2026-04-15 14:57 -16.65820 -55.00522 31159 ft 489 kts 122°
2026-04-15 14:57 -16.67671 -54.97551 31476 ft 489 kts 122°
2026-04-15 14:58 -16.69520 -54.94580 31793 ft 488 kts 123°
2026-04-15 14:58 -16.71368 -54.91608 32114 ft 488 kts 123°
2026-04-15 14:58 -16.73213 -54.88641 32414 ft 487 kts 123°
2026-04-15 14:58 -16.75057 -54.85672 32710 ft 487 kts 123°
2026-04-15 14:59 -16.76898 -54.82708 33000 ft 487 kts 123°
2026-04-15 14:59 -16.78735 -54.79748 33289 ft 486 kts 124°
2026-04-15 14:59 -16.80574 -54.76784 33574 ft 486 kts 124°
2026-04-15 14:59 -16.82408 -54.73827 33834 ft 486 kts 124°
2026-04-15 15:00 -16.84246 -54.70862 34091 ft 485 kts 124°
2026-04-15 15:00 -16.86078 -54.67907 34358 ft 484 kts 124°
2026-04-15 15:00 -16.87906 -54.64956 34622 ft 483 kts 124°
2026-04-15 15:00 -16.89729 -54.62014 34864 ft 482 kts 124°
2026-04-15 15:01 -16.91549 -54.59075 34955 ft 482 kts 124°
2026-04-15 15:01 -16.95181 -54.53207 34962 ft 481 kts 124°
2026-04-15 15:02 -16.98815 -54.47332 34960 ft 481 kts 124°
2026-04-15 15:02 -17.02443 -54.41461 34963 ft 481 kts 124°
2026-04-15 15:03 -17.06074 -54.35578 34962 ft 482 kts 124°
2026-04-15 15:03 -17.09710 -54.29684 34969 ft 483 kts 125°
2026-04-15 15:04 -17.13348 -54.23781 34971 ft 483 kts 124°
2026-04-15 15:04 -17.16987 -54.17871 34976 ft 484 kts 124°
2026-04-15 15:05 -17.20628 -54.11951 34981 ft 484 kts 124°
2026-04-15 15:05 -17.24246 -54.06066 34984 ft 484 kts 125°
2026-04-15 15:06 -17.29716 -53.97173 34985 ft 484 kts 126°
2026-04-15 15:06 -17.33776 -53.91580 34985 ft 483 kts 130°
2026-04-15 15:07 -17.37890 -53.86022 34983 ft 483 kts 130°
2026-04-15 15:07 -17.41998 -53.80464 34976 ft 483 kts 130°
2026-04-15 15:08 -17.46105 -53.74903 34971 ft 483 kts 130°
2026-04-15 15:08 -17.50211 -53.69338 34970 ft 483 kts 130°
2026-04-15 15:09 -17.54316 -53.63766 34973 ft 483 kts 130°
2026-04-15 15:09 -17.58421 -53.58192 34975 ft 483 kts 130°
2026-04-15 15:10 -17.62525 -53.52613 34980 ft 484 kts 130°
2026-04-15 15:10 -17.66631 -53.47027 34975 ft 484 kts 130°